Theta_e
313 316 319 321 321 322 323 323 324 324 323 319 317 316 312 308 306 305 302 298 297 296 294 293 291 291 289 288 287 286 284 283
310 314 317 318 320 321 323 323 322 323 323 319 318 315 313 310 308 305 301 299 297 295 293 292 290 290 288 287 286 286 284 283
306 308 310 314 316 319 321 321 321 323 320 317 316 313 311 310 307 302 299 298 297 295 293 291 291 289 288 287 287 285 284 282
301 301 304 305 307 310 312 316 314 315 315 313 311 310 310 308 303 300 298 296 295 293 292 291 289 289 288 288 287 286 284 283
298 299 300 301 304 305 306 308 307 308 310 309 308 308 307 303 300 298 296 294 294 293 292 290 290 289 288 287 286 285 283 283
298 299 299 300 300 301 302 303 304 303 304 304 303 304 301 298 296 294 294 294 294 291 289 289 289 288 288 287 285 284 283 283
295 297 299 299 299 300 301 301 302 303 302 301 300 299 297 295 293 292 291 291 290 288 289 288 289 291 290 287 284 284 283 283
293 294 297 298 299 298 299 298 299 299 297 296 295 293 292 292 290 290 290 289 288 287 287 287 286 291 291 288 284 284 283 282
293 293 294 296 298 298 297 297 297 296 296 293 292 292 290 290 290 289 287 287 287 286 286 286 286 291 291 288 284 283 283 282
293 293 294 295 297 296 294 293 293 293 293 291 291 289 288 288 288 286 286 285 285 285 285 285 285 291 291 288 283 283 283 282
289 290 291 291 293 294 292 290 291 292 292 290 290 289 289 288 286 284 286 285 285 285 285 285 285 290 291 289 284 283 282 282
286 286 287 287 287 289 289 291 290 287 287 288 288 289 289 287 284 285 284 284 284 284 283 284 284 285 291 291 284 284 282 281
282 283 284 283 284 287 288 289 287 287 287 287 287 286 286 286 284 284 285 284 283 283 282 281 282 284 290 291 289 286 283 282
279 280 281 280 280 282 286 285 284 286 286 286 286 286 286 286 285 284 285 284 283 283 283 282 281 280 287 290 291 289 284 281
277 276 276 276 277 278 280 281 283 285 286 286 286 285 285 285 285 285 285 284 283 283 283 280 280 280 281 283 284 285 285 285
272 272 272 272 273 274 275 278 280 279 281 284 286 286 284 283 284 284 282 286 285 285 284 282 281 282 283 281 279 278 280 277
270 270 270 270 271 272 273 275 279 278 278 279 283 283 283 283 283 287 287 288 288 287 284 282 285 287 286 286 285 285 285 279
267 268 268 269 269 272 273 275 277 278 280 281 282 283 282 282 282 281 284 287 287 287 287 286 286 286 286 286 286 286 283 277
265 266 267 268 269 270 274 277 278 278 279 281 282 283 282 282 281 281 280 278 278 284 285 286 286 286 286 286 285 282 282 279
265 266 268 270 270 272 276 276 276 276 277 279 280 280 281 281 280 279 278 277 276 277 279 282 285 285 285 284 280 279 277 275
Wind_Speed
18 20 18 19 20 19 19 21 17 18 17 14 14 14 11 11 13 12 9 8 10 10 8 8 7 7 7 5 5 6 4 4
11 14 15 14 15 17 17 19 17 17 15 15 14 13 13 13 12 11 10 11 12 12 10 10 9 7 7 6 7 7 6 5
8 8 9 12 12 14 14 14 13 14 12 14 13 13 13 11 11 11 11 10 11 11 10 9 9 9 9 9 7 8 8 8
5 3 4 4 6 7 8 9 8 11 13 12 12 12 13 12 11 10 10 11 10 12 12 11 10 9 7 8 8 8 7 8
8 6 5 3 5 6 6 7 8 9 10 11 12 12 10 10 10 10 10 11 11 11 11 10 10 9 8 8 7 6 6 6
3 2 3 2 2 3 4 5 5 7 8 8 8 9 9 10 9 8 10 9 9 9 7 8 9 8 10 8 7 7 6 6
4 3 2 3 4 4 4 5 6 8 8 8 9 9 10 9 10 10 8 8 9 8 9 10 7 12 13 10 8 7 8 8
7 6 5 5 5 6 6 4 5 5 5 6 6 7 6 7 8 9 10 8 8 7 8 8 6 15 16 14 7 8 8 6
6 8 7 4 6 4 5 6 6 6 6 7 7 7 7 8 8 6 5 8 7 7 7 7 6 15 15 15 7 6 6 7
6 6 7 8 6 4 5 6 6 7 7 6 7 7 8 9 8 5 6 5 6 5 7 8 7 15 16 14 7 7 8 6
10 7 5 7 8 5 6 6 9 7 6 6 7 7 9 8 8 5 5 5 5 6 7 7 8 13 15 13 5 6 4 4
9 8 7 7 6 6 5 9 4 4 5 7 7 8 8 7 4 6 5 6 5 6 5 6 7 9 14 15 6 5 3 3
7 7 7 8 7 7 7 4 6 6 6 6 6 5 5 7 5 6 7 7 6 5 4 3 4 7 12 14 13 9 5 5
5 7 7 8 7 8 7 5 3 5 6 6 8 6 6 7 7 6 6 7 6 7 6 5 3 2 8 11 14 13 5 2
6 6 7 9 8 6 9 9 4 5 7 8 8 9 7 5 6 6 7 6 6 7 6 3 3 3 3 4 3 6 2 3
5 5 7 7 7 7 8 8 4 1 0 3 5 8 7 5 6 5 2 6 8 7 6 7 6 6 8 7 4 3 3 4
5 4 6 6 7 7 8 7 4 2 3 2 4 5 7 7 6 7 6 7 6 8 7 1 7 13 14 13 12 11 11 2
3 5 6 6 5 7 7 7 5 2 5 4 4 5 7 8 8 9 7 13 12 12 14 13 12 13 13 12 12 11 9 3
4 5 7 8 6 7 6 7 6 4 3 3 5 6 6 7 7 7 7 6 2 9 10 13 14 13 13 13 11 6 4 1
3 5 6 9 9 8 6 9 8 6 5 3 4 4 6 6 7 7 7 6 6 4 6 5 13 13 10 9 3 4 4 3
Wind_Direction
198 199 197 197 197 196 194 196 193 192 192 188 185 184 177 174 181 182 175 162 163 168 177 168 152 170 152 148 148 141 147 140
208 199 195 191 192 196 197 194 190 189 187 182 184 185 180 181 180 180 166 170 175 176 169 173 163 169 153 155 153 152 149 145
184 171 179 180 182 189 192 193 187 184 174 178 175 178 180 181 173 161 169 170 171 166 175 173 171 167 163 166 166 164 168 171
50 118 126 120 132 150 163 178 163 166 169 170 176 179 180 170 162 160 160 167 165 166 178 181 173 168 168 168 168 179 177 167
27 25 34 85 138 147 151 159 154 159 166 173 174 176 170 154 154 160 164 164 168 177 180 172 170 165 168 166 170 176 177 177
23 314 69 31 49 97 130 151 151 150 156 167 150 150 147 144 151 154 162 170 166 158 160 160 165 171 171 168 174 170 177 198
336 314 311 251 224 204 189 173 158 167 176 160 160 156 160 154 158 154 149 155 159 166 167 170 175 171 170 166 166 178 189 205
342 315 281 251 225 219 204 160 168 163 146 143 146 149 154 141 147 153 162 161 171 163 158 166 163 170 174 168 172 184 200 186
356 348 325 269 226 201 178 182 178 179 180 164 161 157 152 148 158 144 147 166 168 164 167 161 176 174 173 172 182 196 199 197
339 329 322 324 283 207 188 192 196 194 177 178 162 155 159 164 163 154 143 157 175 164 165 169 180 183 178 172 182 202 216 210
333 324 340 353 330 238 220 202 213 200 200 160 158 168 174 169 166 142 144 150 149 164 179 176 181 194 189 180 177 206 215 196
334 330 325 333 329 273 228 231 195 170 147 156 171 173 181 157 124 136 135 138 156 163 171 186 187 201 197 190 182 203 185 183
340 331 330 345 341 308 261 211 176 172 169 166 165 152 140 152 138 140 151 153 156 158 176 214 199 191 203 200 198 193 190 207
338 334 346 357 355 326 323 302 188 157 173 178 155 147 146 152 154 145 154 158 170 180 188 204 177 165 204 207 212 213 211 137
341 2 346 346 343 332 326 322 262 207 181 165 179 152 153 143 161 159 171 168 173 184 195 162 167 191 201 207 206 227 191 178
354 346 337 330 333 331 331 333 300 294 74 170 170 157 151 133 159 166 167 176 178 192 177 167 194 207 185 167 162 154 155 118
345 341 330 330 329 333 330 330 298 158 138 163 148 143 144 133 105 90 133 172 176 169 148 156 141 147 152 154 151 151 149 81
334 333 322 325 329 335 336 330 309 195 155 143 143 152 143 132 134 125 92 90 95 120 123 124 130 133 137 137 142 151 130 120
349 3 335 323 343 320 1 13 20 21 79 139 150 147 144 139 129 125 129 120 135 89 114 129 138 145 148 148 143 145 148 150
20 6 355 335 330 327 37 39 31 32 12 20 74 86 111 117 118 115 114 138 99 91 77 120 136 129 125 131 107 115 84 64